Tracking 20719 objects as of 24-May-2020
HD Live streaming from Space Station
objects crossing your sky now

GALAXY 3R

Track GALAXY 3R now!
GALAXY 3R is classified as:


NORAD ID: 23741
Int'l Code: 1995-069A
Perigee: 35,762.3 km
Apogee: 35,836.6 km
Inclination: 11.2 °
Period: 1,436.4 minutes
Semi major axis: 42170 km
RCS: 12.3125 m2 (large)
Launch date: December 15, 1995
Source: United States (US)
Launch site: AIR FORCE EASTERN TEST RANGE (AFETR)

24 C-band, 16 Ku-band; North America, Caribbean; 140 television channels.
aabbcc
Your satellite tracking list
Your tracking list is empty




NASA's NSSDC Master Catalog

Two Line Element Set (TLE):
1 23741U 95069A   20143.75835154 +.00000067 +00000-0 +00000-0 0  9997
2 23741 011.1976 031.3733 0008810 017.9841 331.3340 01.00251470089588
Source of the keplerian elements: AFSPC